Volver al catálogo

FENGYUN 1C DEB

ActivoSSO
NORAD 30175·DEBRIS·🇨🇳 China

Lanzado May 10, 1999 desde Taiyuan Satellite Launch Center

Loading…

Próximos Pases (próximas 24 horas)

TLE

ActualizadoSource: Space-Track

Época: Sep 14, 2026, 03:45 UTC

1 30175U 99025UG  26257.15626424  .00000326  00000-0  30693-3 0  9998
2 30175  99.3468 317.2199 0145500 199.7149 187.0359 13.84089407991505

Sigue FENGYUN 1C DEB en tiempo real con AllMySat

Download on the App Store